Flag for India Weather past 2 weeks in Mumbai, Maharashtra, India

Now
82 °F

Passing clouds.


Feels Like: 89 °F
Forecast: 80 / 85 °F
Wind: 5 mph from Southwest

Location: Mumbai / Santacruz

Current Time: Sep 1, 2015 at 11:50:49 PM

Latest Report: Sep 1, 2015 at 11:10 PM


Visibility: 2 mi

Pressure: 29.77 "Hg

Humidity: 79%

Dew point: 75 °F

Location of MumbaiLocation

Historic Weather in Mumbai — Graph

°F

Mumbai temperature yesterday

Maximum temperature yesterday: 88 °F (at 1:40 PM)
Minimum temperature yesterday: 79 °F (at 12:10 AM)
Average temperature yesterday: 82 °F

Past Weeks' High & Low Weather Summary

 TemperatureHumidityPressure
High88 °F (Aug 18, 1:10 PM)94% (Aug 17, 11:10 PM)29.86 "Hg (Aug 17, 11:10 PM)
Low79 °F (Aug 18, 5:10 AM)62% (Aug 21, 3:40 PM)29.68 "Hg (Aug 26, 4:10 PM)
Average83 °F81%29.77 "Hg
* Reported Aug 17 11:10 PM — Sep 1 10:40 PM, Mumbai, Weather by CustomWeather, © 2015

Note: Actual official high and low records may vary slightly from our data, if they occured in-between our weather recording intervals... More about our weather records

Advertising

Mumbai weather history for previous 24 hours

 ConditionsComfort  
Time TempWeatherWind HumidityBarometerVisibility
10:40 PM
Tue, Sep 1
82 °FPartly cloudy.3 mph84%29.77 "Hg2 mi
10:10 PM82 °FPartly cloudy.5 mph84%29.77 "Hg2 mi
9:40 PM82 °FPartly cloudy.5 mph79%29.77 "Hg2 mi
9:10 PM82 °FPartly cloudy.6 mph79%29.77 "Hg2 mi
8:40 PM84 °FPassing clouds.7 mph74%29.77 "Hg2 mi
8:10 PM84 °FPassing clouds.7 mph74%29.77 "Hg3 mi
7:40 PM84 °FPassing clouds.8 mph74%29.74 "Hg3 mi
6:40 PM84 °FScattered clouds.10 mph74%29.74 "Hg4 mi
6:10 PM84 °FScattered clouds.14 mph74%29.71 "Hg4 mi
5:40 PM86 °FScattered clouds.12 mph70%29.71 "Hg4 mi
5:10 PM86 °FScattered clouds.12 mph66%29.71 "Hg4 mi
4:40 PM86 °FScattered clouds.14 mph70%29.71 "Hg4 mi
4:10 PM88 °FScattered clouds.10 mph62%29.71 "Hg3 mi
3:40 PM88 °FScattered clouds.12 mph66%29.71 "Hg3 mi
3:10 PM88 °FScattered clouds.12 mph66%29.74 "Hg3 mi
2:40 PM86 °FScattered clouds.12 mph75%29.74 "Hg3 mi
1:40 PM88 °FScattered clouds.13 mph66%29.77 "Hg3 mi
1:10 PM88 °FScattered clouds.8 mph70%29.77 "Hg3 mi
12:40 PM88 °FScattered clouds.13 mph66%29.77 "Hg3 mi
12:10 PM88 °FScattered clouds.9 mph66%29.80 "Hg3 mi
11:10 AM86 °FScattered clouds.14 mph70%29.80 "Hg2 mi
10:40 AM84 °FScattered clouds.12 mph79%29.80 "Hg2 mi
10:10 AM84 °FBroken clouds.7 mph79%29.80 "Hg2 mi
9:10 AM82 °FScattered clouds.5 mph89%29.80 "Hg1 mi
7:40 AM81 °FScattered clouds.5 mph89%29.77 "Hg2 mi
7:10 AM81 °FScattered clouds.5 mph89%29.77 "Hg2 mi
6:40 AM81 °FScattered showers. Partly cloudy.3 mph89%29.74 "Hg2 mi
5:40 AM81 °FPassing clouds.3 mph89%29.74 "Hg2 mi
5:10 AM81 °FPassing clouds.3 mph89%29.74 "Hg2 mi
4:40 AM79 °FPassing clouds.5 mph94%29.74 "Hg2 mi
4:10 AM79 °FPassing clouds.3 mph89%29.74 "Hg2 mi
3:10 AM79 °FPassing clouds.3 mph84%29.74 "Hg2 mi
2:40 AM81 °FPassing clouds.6 mph89%29.74 "Hg2 mi
2:10 AM82 °FPassing clouds.3 mph84%29.77 "Hg2 mi
1:40 AM82 °FPassing clouds.3 mph79%29.77 "Hg2 mi
1:10 AM82 °FPassing clouds.6 mph74%29.77 "Hg2 mi
12:40 AM82 °FPassing clouds.8 mph79%29.80 "Hg2 mi
12:10 AM82 °FPassing clouds.5 mph79%29.80 "Hg2 mi
11:40 PM
Mon, Aug 31
82 °FPassing clouds.5 mph79%29.80 "Hg2 mi
11:10 PM82 °FPassing clouds.5 mph79%29.80 "Hg2 mi
Weather by CustomWeather, © 2015

See weather overviewHow to use our weather pages